Torna al catalogo

SJ-30C

AttivoScienzaVLEO
NORAD 66547·PAYLOAD·🇨🇳 China

Lanciato Nov 19, 2025 da Jiuquan Satellite Launch Center

Loading…

Prossimi Passaggi (prossime 24 ore)

TLE

AggiornatoSource: Space-Track

Epoca: Sep 14, 2026, 18:55 UTC

1 66547U 25266C   26257.78879997  .00004724  00000-0  26194-3 0  9997
2 66547  51.7962 119.6365 0006707 185.4803 174.6101 15.15542318 45442

Traccia SJ-30C in tempo reale con AllMySat

Download on the App Store